{"data":{"norad_id":62038,"intl_designator":"2024-216G","name":"STARLINK-32477","alt_names":[],"object_type":"PAYLOAD","status":"ACTIVE","operator":null,"country":"US","launch_date":"2024-11-21","launch_site_code":"AFETR","launch_vehicle":null,"mission":null,"orbit_class":"UNKNOWN","rcs_meters":null,"size_class":null,"mass_kg":null,"dimensions":null,"purposes":["comms"],"wikipedia_slug":null,"has_3d_model":false,"image_url":null,"decayed_at":null,"tle_current":{"epoch":"2026-07-29T04:22:24.769632Z","epoch_age_seconds":4792213,"freshness":"OLD","line1":"1 62038U 24216G   26210.18223113  .19175325  86043-5  55650-2 0  9998","line2":"2 62038  42.9859 122.7646 0032382 214.2211 145.6589 16.24787158 94995","mean_motion":16.24787158,"eccentricity":0.0032382,"inclination_deg":42.9859,"raan_deg":122.7646,"arg_perigee_deg":214.2211,"mean_anomaly_deg":145.6589,"bstar":0.005565,"rev_number":9499,"period_min":88.626992951652,"perigee_km":185.26354013926,"apogee_km":227.908841412,"semimajor_km":6584.7231907756,"source":"CELESTRAK","updated_at":"2026-07-29T09:01:16.617377Z"}}}